Regional Weather Roundup
Issued by NWS

Home | Current Version | Previous Version | Graphics & Text | Print | Product List | Glossary On
Versions: 1 2 3 4 5 6 7 8 9 10 11 12 13 14 15 16 17 18 19 20 21 22 23 24 25 26 27 28 29 30 31 32 33 34 35 36 37 38 39 40 41 42 43 44 45 46 47 48 49 50
000
ASUS45 KSLC 222210
RWRUT

UTAH REGIONAL WEATHER ROUNDUP
NATIONAL WEATHER SERVICE SALT LAKE CITY UT
400 PM MDT SUN APR 22 2018

UTZ001>011-023>025-222300-

NORTHERN UTAH

CITY           SKY/WX    TMP DP  RH WIND       PRES   REMARKS
BRIGHAM CITY   SUNNY     73  26  17 W3        30.01F
HILL AFB       SUNNY     71  30  22 CALM      30.01F
LOGAN          SUNNY     76  33  21 CALM      30.00F
OGDEN          SUNNY     73  25  16 VRB6      30.00F
SALT LAKE CITY PTSUNNY   75  27  17 VRB3      29.99F
TOOELE VALLEY  SUNNY     72  37  28 N10       29.99F
WENDOVER       SUNNY     75  26  16 VRB7      29.96F
HEBER CITY       N/A     72  21  15 SW12      30.02F
WEST JORDAN    SUNNY     72  35  25 E5        30.01F

$$

UTZ011>015-024>027-222300-

CENTRAL/NORTHEAST UTAH

CITY           SKY/WX    TMP DP  RH WIND       PRES   REMARKS
PROVO AIRPORT  MOSUNNY   71  32  23 SW6       30.02F
MOAB/CANYONLAN SUNNY     73  27  18 S8        29.99F
DELTA          SUNNY     72  23  16 W7        30.02F
PRICE          SUNNY     72  22  15 S10G24    30.06F
RICHFIELD      SUNNY     72  27  18 NW6       30.01F
VERNAL         SUNNY     70  26  19 SE8       30.05F

$$

UTZ013>016-019>022-027-222300-

SOUTHERN UTAH

CITY           SKY/WX    TMP DP  RH WIND       PRES   REMARKS
BRYCE CANYON   CLOUDY    63  21  20 SE13      30.15F
CEDAR CITY     MOSUNNY   74  22  14 NW6       30.03F
MILFORD        NOT AVBL
ST GEORGE      CLEAR     83  21  10 VRB3      29.91
HANKSVILLE     MOSUNNY   77  27  15 SE5       30.03F
KANAB          SUNNY     79  12   8 SW7       30.04F
BLANDING         N/A     70  25  18 SW6       30.13F

$$

REGIONAL REPORTS     COLORADO/ARIZONA

CITY           SKY/WX    TMP DP  RH WIND       PRES   REMARKS
CRAIG, CO      SUNNY     65  27  23 SW6       30.11F
GRAND JUNCTION SUNNY     73  28  18 S5        30.02F
RIFLE, CO      SUNNY     70  29  21 NE3       30.07F
MONTROSE, CO   MOSUNNY   68  22  17 MISG      30.08F
CORTEZ, CO     PTSUNNY   70  21  15 W8        30.07F
COLORADO CITY    N/A     79  21  11 N6        30.04F
PAGE, AZ       SUNNY     79  22  12 N13G18    29.99F
GRAND CANYON   MOSUNNY   72  12  10 SW10G17   30.10F
KINGMAN, AZ    SUNNY     84  23  10 VRB3G18   29.95F
FLAGSTAFF, AZ  SUNNY     68  16  13 CALM      30.13F

$$

REGIONAL REPORTS    NEVADA/IDAHO/WYOMING

CITY           SKY/WX    TMP DP  RH WIND       PRES   REMARKS
LAS VEGAS, NV  MOSUNNY   87  22   9 CALM      29.87F
ELY, NY        CLOUDY    68  18  14 CALM      30.04F
ELKO, NV       MOSUNNY   74  32  21 SW13G20   29.97F
POCATELLO, ID  MOSUNNY   74  30  19 W13       29.98F
BURLEY, ID     SUNNY     68  36  30 W10G18    29.97F
FORT BRIDGER,  PTCLDY    64  21  19 E6        30.12F
EVANSTON, WY   SUNNY     65  20  17 MISG      30.10F
ROCK SPRINGS,  SUNNY     65  12  12 SW12      30.10F
KEMMERER, WY   SUNNY     64  18  16 W8G21     30.12F

$$



USA.gov is the U.S. government's official web portal to all federal, state and local government web resources and services.